Terminal Aerodrome Forecast
Issued by NWS

Home | Current Version | Previous Version | Graphics & Text | Print | Product List | Glossary On
Versions: 1 2 3 4 5 6 7 8 9 10 11 12 13 14 15 16 17 18 19 20 21 22
000
FTUS43 KABR 211000 AAA
TAFPIR
TAF AMD
KPIR 211011Z 2110/2206 08010KT 5SM BR FEW100 FEW250
     FM211500 14009KT P6SM SCT250
     FM212100 20011KT P6SM SCT250=

USA.gov is the U.S. government's official web portal to all federal, state and local government web resources and services.